Back to catalog

COSMOS 1491

GLONASS

AliveNavigationMEO
NORAD 14259·PAYLOAD·🇷🇺 Russia

Launched Aug 10, 1983 from Baikonur Cosmodrome

Loading…

Next Passes (next 24 hours)

TLE

FreshSource: Space-Track

Epoch: Sep 14, 2026, 11:58 UTC

1 14259U 83084B   26257.49873390 -.00000030  00000-0  00000-0 0  9993
2 14259  65.0865  54.9390 0019148 302.3013  63.5308  2.15434789338066

Track COSMOS 1491 in real time with AllMySat

Download on the App Store